• In Portugal
  • List of Countries
  • For 7 days
  • Water Temperature
  • Satellite Maps
  • Weather Map
  • Weather Widgets
  • user-avatar
    Login

    Hourly Weather Rio Branco

    Today, 21 November, Tuesday

    Time Temperature Precipitation Wind Pressure Humidity
    00:00 +24°C° 0 mm 0 mps 743 mmHg 91%
    01:00 +23°C° 0 mm 0 mps 743 mmHg 92%
    02:00 +23°C° 0 mm 0 mps 743 mmHg 93%
    03:00 +22°C° 0 mm 0 mps 743 mmHg 94%
    04:00 +22°C° 0 mm 0 mps 743 mmHg 94%
    05:00 +24°C° 0 mm 0 mps 743 mmHg 89%
    06:00 +25°C° 0 mm 0 mps 744 mmHg 84%
    07:00 +26°C° 0 mm 0 mps 744 mmHg 78%
    08:00 +31°C° 0 mm 1 mps 744 mmHg 69%
    09:00 +33°C° 0 mm 1 mps 744 mmHg 59%
    10:00 +35°C° 0 mm 1 mps 745 mmHg 49%
    11:00 +36°C° 0 mm 2 mps 744 mmHg 48%
    12:00 +37°C° 0 mm 2 mps 743 mmHg 47%
    13:00 +37°C° 0 mm 2 mps 742 mmHg 46%
    14:00 +35°C° 0 mm 1 mps 741 mmHg 50%
    15:00 +34°C° 0 mm 1 mps 741 mmHg 54%
    16:00 +34°C° 0 mm 1 mps 740 mmHg 58%
    17:00 +32°C° 0.1 mm 1 mps 740 mmHg 62%
    18:00 +29°C° 0.1 mm 0 mps 741 mmHg 66%
    19:00 +28°C° 0.1 mm 0 mps 741 mmHg 71%
    20:00 +29°C° 0.3 mm 1 mps 742 mmHg 76%
    21:00 +28°C° 0.3 mm 1 mps 743 mmHg 80%
    22:00 +27°C° 0.3 mm 1 mps 743 mmHg 85%
    23:00 +27°C° 0 mm 1 mps 743 mmHg 86%

    Tomorrow, 22 November, Wednesday

    Time Temperature Precipitation Wind Pressure Humidity
    00:00 +27°C° 0 mm 1 mps 743 mmHg 87%
    01:00 +26°C° 0 mm 1 mps 742 mmHg 88%
    02:00 +26°C° 0 mm 1 mps 743 mmHg 89%
    03:00 +26°C° 0 mm 1 mps 743 mmHg 89%
    04:00 +24°C° 0 mm 0 mps 743 mmHg 89%
    05:00 +27°C° 0 mm 1 mps 744 mmHg 84%
    06:00 +28°C° 0 mm 1 mps 744 mmHg 79%
    07:00 +30°C° 0 mm 1 mps 745 mmHg 74%
    08:00 +32°C° 0.2 mm 1 mps 745 mmHg 66%
    09:00 +34°C° 0.2 mm 1 mps 745 mmHg 57%
    10:00 +35°C° 0.2 mm 1 mps 745 mmHg 48%
    11:00 +36°C° 0 mm 1 mps 744 mmHg 48%
    12:00 +36°C° 0 mm 1 mps 743 mmHg 48%
    13:00 +36°C° 0 mm 1 mps 742 mmHg 48%
    14:00 +35°C° 0 mm 1 mps 742 mmHg 52%
    15:00 +34°C° 0 mm 1 mps 741 mmHg 57%
    16:00 +33°C° 0 mm 1 mps 741 mmHg 61%
    17:00 +31°C° 0.3 mm 1 mps 741 mmHg 68%
    18:00 +29°C° 0.3 mm 1 mps 742 mmHg 76%
    19:00 +28°C° 0.3 mm 1 mps 742 mmHg 83%
    20:00 +27°C° 0 mm 1 mps 743 mmHg 85%
    21:00 +27°C° 0 mm 1 mps 743 mmHg 87%
    22:00 +27°C° 0 mm 1 mps 744 mmHg 88%
    23:00 +26°C° 0.2 mm 1 mps 743 mmHg 90%

    Day after tomorrow, 23 November, Thursday

    Time Temperature Precipitation Wind Pressure Humidity
    00:00 +26°C° 0.2 mm 1 mps 743 mmHg 91%
    01:00 +24°C° 0.2 mm 0 mps 743 mmHg 93%
    02:00 +24°C° 0.1 mm 0 mps 743 mmHg 93%
    03:00 +23°C° 0.1 mm 0 mps 742 mmHg 93%
    04:00 +23°C° 0.1 mm 0 mps 742 mmHg 94%
    05:00 +24°C° 0 mm 0 mps 743 mmHg 90%
    06:00 +26°C° 0 mm 0 mps 744 mmHg 86%
    07:00 +27°C° 0 mm 0 mps 744 mmHg 81%
    08:00 +27°C° 1.2 mm 0 mps 745 mmHg 81%
    09:00 +30°C° 1.2 mm 1 mps 745 mmHg 80%
    10:00 +31°C° 1.2 mm 1 mps 745 mmHg 80%
    11:00 +31°C° 1.9 mm 1 mps 744 mmHg 81%
    12:00 +31°C° 1.9 mm 1 mps 744 mmHg 83%
    13:00 +31°C° 1.9 mm 1 mps 743 mmHg 84%
    14:00 +31°C° 0.4 mm 1 mps 742 mmHg 81%
    15:00 +31°C° 0.4 mm 1 mps 742 mmHg 77%
    16:00 +31°C° 0.4 mm 1 mps 742 mmHg 74%
    17:00 +29°C° 0.1 mm 1 mps 742 mmHg 80%
    18:00 +26°C° 0.1 mm 0 mps 742 mmHg 85%
    19:00 +25°C° 0.1 mm 0 mps 743 mmHg 91%
    20:00 +24°C° 0.2 mm 0 mps 743 mmHg 91%
    21:00 +24°C° 0.2 mm 0 mps 743 mmHg 91%
    22:00 +24°C° 0.2 mm 0 mps 744 mmHg 91%
    23:00 +24°C° 0 mm 0 mps 743 mmHg 91%

    24 November, Friday

    Time Temperature Precipitation Wind Pressure Humidity
    00:00 +24°C° 0 mm 0 mps 743 mmHg 92%
    01:00 +23°C° 0 mm 0 mps 743 mmHg 92%
    02:00 +23°C° 0.1 mm 0 mps 743 mmHg 93%
    03:00 +23°C° 0.1 mm 0 mps 743 mmHg 94%
    04:00 +23°C° 0.1 mm 0 mps 743 mmHg 95%
    05:00 +24°C° 0 mm 0 mps 743 mmHg 92%
    06:00 +24°C° 0 mm 0 mps 744 mmHg 90%
    07:00 +25°C° 0 mm 0 mps 745 mmHg 87%
    08:00 +28°C° 0 mm 0 mps 745 mmHg 76%
    09:00 +30°C° 0 mm 0 mps 745 mmHg 65%
    10:00 +33°C° 0 mm 0 mps 745 mmHg 54%
    11:00 +34°C° 0 mm 0 mps 744 mmHg 50%
    12:00 +35°C° 0 mm 0 mps 743 mmHg 47%
    13:00 +36°C° 0 mm 0 mps 742 mmHg 43%
    14:00 +34°C° 0.2 mm 0 mps 742 mmHg 48%
    15:00 +35°C° 0.2 mm 1 mps 741 mmHg 53%
    16:00 +34°C° 0.2 mm 1 mps 741 mmHg 58%
    17:00 +32°C° 2.1 mm 1 mps 741 mmHg 69%
    18:00 +29°C° 2.1 mm 1 mps 742 mmHg 79%
    19:00 +27°C° 2.1 mm 1 mps 742 mmHg 90%
    20:00 +27°C° 3.2 mm 1 mps 743 mmHg 92%
    21:00 +26°C° 3.2 mm 1 mps 743 mmHg 95%
    22:00 +26°C° 3.2 mm 1 mps 744 mmHg 98%
    23:00 +26°C° 0.5 mm 1 mps 743 mmHg 98%

    25 November, Saturday

    Time Temperature Precipitation Wind Pressure Humidity
    00:00 +24°C° 0.5 mm 0 mps 743 mmHg 97%
    01:00 +24°C° 0.5 mm 0 mps 743 mmHg 97%
    02:00 +23°C° 0 mm 0 mps 743 mmHg 97%
    03:00 +23°C° 0 mm 0 mps 743 mmHg 97%
    04:00 +23°C° 0 mm 0 mps 743 mmHg 97%
    05:00 +24°C° 0 mm 0 mps 743 mmHg 96%
    06:00 +24°C° 0 mm 0 mps 744 mmHg 95%
    07:00 +25°C° 0 mm 0 mps 745 mmHg 94%
    08:00 +29°C° 0 mm 1 mps 745 mmHg 84%
    09:00 +31°C° 0 mm 1 mps 745 mmHg 73%
    10:00 +33°C° 0 mm 1 mps 745 mmHg 63%
    11:00 +34°C° 0.1 mm 1 mps 744 mmHg 58%
    12:00 +35°C° 0.1 mm 1 mps 743 mmHg 52%
    13:00 +36°C° 0.1 mm 1 mps 742 mmHg 47%
    14:00 +35°C° 0.1 mm 1 mps 742 mmHg 54%
    15:00 +34°C° 0.1 mm 1 mps 741 mmHg 60%
    16:00 +32°C° 0.1 mm 1 mps 741 mmHg 67%
    17:00 +31°C° 0.4 mm 1 mps 741 mmHg 74%
    18:00 +29°C° 0.4 mm 1 mps 742 mmHg 81%
    19:00 +28°C° 0.4 mm 1 mps 743 mmHg 88%
    20:00 +27°C° 0.7 mm 1 mps 743 mmHg 90%
    21:00 +27°C° 0.7 mm 1 mps 743 mmHg 93%
    22:00 +26°C° 0.7 mm 1 mps 744 mmHg 95%
    23:00 +26°C° 0.3 mm 1 mps 743 mmHg 95%

    26 November, Sunday

    Time Temperature Precipitation Wind Pressure Humidity
    00:00 +26°C° 0.3 mm 1 mps 743 mmHg 96%
    01:00 +26°C° 0.3 mm 1 mps 743 mmHg 96%
    02:00 +26°C° 0 mm 1 mps 743 mmHg 96%
    03:00 +25°C° 0 mm 1 mps 743 mmHg 96%
    04:00 +25°C° 0 mm 1 mps 743 mmHg 96%
    05:00 +26°C° 0 mm 1 mps 744 mmHg 93%
    06:00 +27°C° 0 mm 1 mps 744 mmHg 91%
    07:00 +27°C° 0 mm 1 mps 745 mmHg 88%
    08:00 +29°C° 0.1 mm 1 mps 745 mmHg 78%
    09:00 +31°C° 0.1 mm 2 mps 745 mmHg 69%
    10:00 +34°C° 0.1 mm 2 mps 745 mmHg 59%
    11:00 +35°C° 0 mm 2 mps 744 mmHg 55%
    12:00 +36°C° 0 mm 2 mps 743 mmHg 50%
    13:00 +36°C° 0 mm 1 mps 742 mmHg 46%
    14:00 +35°C° 0 mm 1 mps 742 mmHg 51%
    15:00 +34°C° 0 mm 1 mps 741 mmHg 56%
    16:00 +31°C° 0 mm 0 mps 741 mmHg 60%
    17:00 +32°C° 0.1 mm 1 mps 741 mmHg 66%
    18:00 +30°C° 0.1 mm 1 mps 742 mmHg 71%
    19:00 +29°C° 0.1 mm 1 mps 742 mmHg 77%
    20:00 +28°C° 0.7 mm 1 mps 742 mmHg 83%
    21:00 +25°C° 0.7 mm 0 mps 743 mmHg 89%
    22:00 +24°C° 0.7 mm 0 mps 743 mmHg 96%
    23:00 +24°C° 0.7 mm 0 mps 743 mmHg 96%
    Show more